TimeCST,TemperatureF,Dew PointF,Humidity,Sea Level PressureIn,VisibilityMPH,Wind Direction,Wind SpeedMPH,Gust SpeedMPH,PrecipitationIn,Events,Conditions,WindDirDegrees,DateUTC
12:15 AM,7.7,3.7,84,30.21,10.0,Calm,Calm,-,N/A,,Clear,0,2012-12-21 06:15:00
12:35 AM,6.3,2.7,85,30.21,10.0,Calm,Calm,-,N/A,,Clear,0,2012-12-21 06:35:00
12:55 AM,6.1,2.3,84,30.21,10.0,Calm,Calm,-,N/A,,Clear,0,2012-12-21 06:55:00
1:15 AM,4.1,0.1,84,30.20,10.0,Calm,Calm,-,N/A,,Clear,0,2012-12-21 07:15:00
1:35 AM,4.5,0.3,83,30.20,10.0,Calm,Calm,-,N/A,,Clear,0,2012-12-21 07:35:00
1:55 AM,5.4,1.6,84,30.20,10.0,West,3.5,-,N/A,,Clear,280,2012-12-21 07:55:00
2:15 AM,6.1,2.7,86,30.21,10.0,North,3.5,-,N/A,,Clear,360,2012-12-21 08:15:00
2:35 AM,3.9,-0.4,82,30.21,10.0,Calm,Calm,-,N/A,,Clear,0,2012-12-21 08:35:00
2:55 AM,3.9,-0.0,84,30.21,10.0,Calm,Calm,-,N/A,,Clear,0,2012-12-21 08:55:00
3:15 AM,9.1,5.4,85,30.21,10.0,North,3.5,-,N/A,,Clear,350,2012-12-21 09:15:00
3:35 AM,3.6,-0.9,82,30.22,10.0,NW,3.5,-,N/A,,Clear,310,2012-12-21 09:35:00
3:55 AM,3.6,-0.9,82,30.22,10.0,WNW,3.5,-,N/A,,Clear,290,2012-12-21 09:55:00
4:15 AM,4.6,0.5,83,30.21,10.0,North,3.5,-,N/A,,Clear,360,2012-12-21 10:15:00
4:35 AM,4.6,-0.6,79,30.20,10.0,Calm,Calm,-,N/A,,Clear,0,2012-12-21 10:35:00
4:55 AM,2.5,-1.8,82,30.20,10.0,Calm,Calm,-,N/A,,Clear,0,2012-12-21 10:55:00
6:15 AM,2.3,-2.2,81,30.21,10.0,NW,3.5,-,N/A,,Clear,310,2012-12-21 12:15:00
6:35 AM,1.4,-3.1,81,30.21,10.0,NW,4.6,-,N/A,,Clear,320,2012-12-21 12:35:00
6:55 AM,1.8,-2.9,81,30.22,10.0,Calm,Calm,-,N/A,,Clear,0,2012-12-21 12:55:00
7:15 AM,1.6,-3.1,81,30.22,10.0,NW,3.5,-,N/A,,Clear,310,2012-12-21 13:15:00
7:35 AM,2.5,-2.0,81,30.22,10.0,Calm,Calm,-,N/A,,Clear,0,2012-12-21 13:35:00
7:55 AM,1.4,-3.5,80,30.22,10.0,Calm,Calm,-,N/A,,Clear,0,2012-12-21 13:55:00
8:15 AM,1.4,-3.3,81,30.22,10.0,Calm,Calm,-,N/A,,Clear,0,2012-12-21 14:15:00
8:35 AM,3.9,-0.4,82,30.22,10.0,Calm,Calm,-,N/A,,Clear,0,2012-12-21 14:35:00
8:55 AM,5.7,1.4,82,30.23,10.0,Calm,Calm,-,N/A,,Clear,0,2012-12-21 14:55:00
9:15 AM,7.9,3.4,82,30.24,10.0,Calm,Calm,-,N/A,,Clear,0,2012-12-21 15:15:00
9:35 AM,9.9,5.2,81,30.24,10.0,Calm,Calm,-,N/A,,Clear,0,2012-12-21 15:35:00
9:55 AM,11.7,6.4,80,30.24,10.0,Calm,Calm,-,N/A,,Clear,0,2012-12-21 15:55:00
10:15 AM,14.0,8.6,79,30.24,10.0,Calm,Calm,-,N/A,,Clear,0,2012-12-21 16:15:00
10:35 AM,17.1,11.3,78,30.24,10.0,Calm,Calm,-,N/A,,Clear,0,2012-12-21 16:35:00
10:55 AM,20.7,14.2,76,30.24,10.0,SE,5.8,-,N/A,,Clear,130,2012-12-21 16:55:00
11:15 AM,22.8,14.4,70,30.23,10.0,SE,5.8,-,N/A,,Clear,140,2012-12-21 17:15:00
11:35 AM,24.1,15.3,69,30.22,10.0,SE,5.8,-,N/A,,Clear,140,2012-12-21 17:35:00
11:55 AM,25.5,16.3,68,30.21,10.0,SE,8.1,-,N/A,,Clear,140,2012-12-21 17:55:00
12:15 PM,27.0,17.4,67,30.20,10.0,SE,8.1,-,N/A,,Clear,130,2012-12-21 18:15:00
12:35 PM,27.5,18.1,68,30.20,10.0,SE,8.1,-,N/A,,Clear,140,2012-12-21 18:35:00
12:55 PM,28.6,19.0,67,30.19,10.0,SSE,10.4,-,N/A,,Clear,160,2012-12-21 18:55:00
1:15 PM,29.7,18.1,62,30.19,10.0,SSE,10.4,-,N/A,,Clear,160,2012-12-21 19:15:00
1:35 PM,29.8,18.7,63,30.18,10.0,South,10.4,-,N/A,,Clear,170,2012-12-21 19:35:00
1:55 PM,29.8,18.7,63,30.17,10.0,South,10.4,-,N/A,,Clear,170,2012-12-21 19:55:00
2:15 PM,29.3,18.1,63,30.17,10.0,South,11.5,-,N/A,,Clear,170,2012-12-21 20:15:00
2:35 PM,29.3,18.3,64,30.16,10.0,South,10.4,-,N/A,,Clear,170,2012-12-21 20:35:00
2:55 PM,29.8,19.0,64,30.15,10.0,SSE,9.2,-,N/A,,Clear,160,2012-12-21 20:55:00
3:15 PM,29.7,19.0,65,30.15,10.0,SSE,10.4,-,N/A,,Clear,160,2012-12-21 21:15:00
3:35 PM,29.8,19.8,66,30.15,10.0,South,6.9,-,N/A,,Clear,170,2012-12-21 21:35:00
3:55 PM,29.7,19.9,67,30.15,10.0,South,8.1,-,N/A,,Clear,170,2012-12-21 21:55:00
4:15 PM,28.9,19.6,68,30.14,10.0,SSE,6.9,-,N/A,,Clear,160,2012-12-21 22:15:00
4:35 PM,27.9,19.4,71,30.14,10.0,SSE,5.8,-,N/A,,Clear,150,2012-12-21 22:35:00
4:55 PM,26.2,18.5,73,30.13,10.0,SSE,6.9,-,N/A,,Clear,150,2012-12-21 22:55:00
5:15 PM,25.2,18.1,75,30.13,10.0,SE,6.9,-,N/A,,Clear,140,2012-12-21 23:15:00
5:35 PM,23.9,17.6,77,30.13,10.0,SE,8.1,-,N/A,,Clear,140,2012-12-21 23:35:00
5:55 PM,23.2,17.2,78,30.13,10.0,SSE,6.9,-,N/A,,Clear,150,2012-12-21 23:55:00
6:15 PM,21.2,16.3,82,30.13,10.0,SSE,4.6,-,N/A,,Clear,160,2012-12-22 00:15:00
6:35 PM,21.9,16.7,80,30.13,10.0,SSE,9.2,-,N/A,,Clear,150,2012-12-22 00:35:00
6:55 PM,21.7,16.5,80,30.13,10.0,SSE,8.1,-,N/A,,Clear,150,2012-12-22 00:55:00
7:15 PM,20.5,15.6,81,30.13,10.0,SE,8.1,-,N/A,,Clear,140,2012-12-22 01:15:00
7:35 PM,19.8,15.3,83,30.12,10.0,SE,6.9,-,N/A,,Clear,140,2012-12-22 01:35:00
7:55 PM,19.0,14.7,83,30.11,10.0,SE,9.2,-,N/A,,Clear,140,2012-12-22 01:55:00
8:15 PM,20.3,15.4,81,30.11,10.0,SE,6.9,-,N/A,,Clear,130,2012-12-22 02:15:00
8:35 PM,19.8,14.9,81,30.11,10.0,SE,5.8,-,N/A,,Clear,130,2012-12-22 02:35:00
8:55 PM,19.8,14.9,81,30.11,10.0,SE,4.6,-,N/A,,Clear,130,2012-12-22 02:55:00
9:15 PM,19.4,14.7,82,30.11,10.0,SE,4.6,-,N/A,,Clear,130,2012-12-22 03:15:00
9:35 PM,18.5,14.2,83,30.10,10.0,SSE,4.6,-,N/A,,Clear,160,2012-12-22 03:35:00
9:55 PM,19.4,14.9,83,30.10,10.0,SSE,6.9,-,N/A,,Clear,160,2012-12-22 03:55:00
10:15 PM,20.7,15.4,80,30.09,10.0,South,8.1,-,N/A,,Clear,170,2012-12-22 04:15:00
10:35 PM,21.2,15.8,80,30.09,10.0,South,8.1,-,N/A,,Clear,170,2012-12-22 04:35:00
10:55 PM,22.1,16.3,79,30.09,10.0,South,11.5,-,N/A,,Clear,180,2012-12-22 04:55:00
11:15 PM,23.2,16.7,76,30.09,10.0,South,6.9,-,N/A,,Clear,170,2012-12-22 05:15:00
11:35 PM,23.9,16.9,75,30.08,10.0,South,5.8,-,N/A,,Clear,170,2012-12-22 05:35:00
11:55 PM,23.5,16.7,75,30.08,10.0,South,5.8,-,N/A,,Clear,170,2012-12-22 05:55:00